[[{"header":{"parameterUnit":"m.s-1","parameterCategory":1,"la1":30.2992,"la2":30.254,"lo1":-89.0895,"lo2":-89.0443,"dy":0.0025,"dx":0.0025,"nx":19,"ny":19,"refTime":"2026-04-09T03:00:00:Z","depth":0,"parameterNumber":2,"parameterNumberName":"U-component_of_WINDS"},"data":[0,0,0,-5.0062,-5.0063,-5.0087,-5.0087,-5.0154,-5.0155,0,0,0,0,0,0,0,0,0,0,0,-5.0075,-5.0076,-5.0061,-5.0063,-5.0087,-5.0087,-5.0154,-5.0155,0,0,0,0,0,0,0,0,0,0,0,-5.0074,-5.0076,-5.0077,-5.0063,-5.0087,-5.0087,-5.0154,-5.0123,0,0,0,0,0,0,0,0,0,0,-5.0093,-5.0125,-5.0075,-5.0077,-5.0063,-5.0087,-5.0087,-5.0121,-5.0125,-5.0158,0,-5.0192,0,-5.0175,-5.0162,-5.0162,0,0,0,-5.0047,-5.0122,-5.011,-5.0077,-5.0064,-5.0087,-5.0072,-5.0122,-5.0127,-5.0164,-5.0193,-5.0195,-5.0176,-5.0162,-5.0163,-5.0406,-5.0407,0,0,-5.0046,-5.009,-5.0107,-5.0114,-5.0112,-5.0071,-5.0073,-5.0125,-5.016,-5.0193,-5.0196,-5.0177,-5.0163,-5.0164,-5.0404,-5.0406,0,0,0,-5.0052,-5.009,-5.0076,-5.0112,-5.0114,-5.0072,-5.0074,-5.0157,-5.0149,-5.0196,-5.0178,-5.0164,-5.0165,-5.0402,-5.0405,-5.0539,0,0,0,-5.0051,-5.0094,-5.0076,-5.0104,-5.0114,-5.0136,-5.0107,-5.0146,-5.015,-5.0178,-5.0164,-5.0166,-5.04,-5.0403,-5.053,-5.0594,0,0,0,-5.0066,-5.0095,-5.0106,-5.0106,-5.0118,-5.0134,-5.0128,-5.0146,-5.014,-5.0162,-5.0166,-5.0398,-5.0403,-5.0523,-5.0582,-5.067,0,0,0,-5.0095,-5.0225,-5.0109,-5.0247,-5.0119,-5.0217,-5.0127,-5.0199,-5.0234,-5.0164,-5.04,-5.0404,-5.0521,-5.0574,-5.0662,-5.0751,-5.0792,0,0,-5.0283,-5.0249,-5.0326,-5.0223,-5.0354,-5.021,-5.036,-5.035,-5.0312,-5.0377,-5.0382,-5.0533,-5.0581,-5.0668,-5.1013,-5.1046,0,0,0,-5.0401,-5.0457,-5.0482,-5.0517,-5.0514,-5.0515,-5.0478,-5.0475,-5.0528,-5.0354,-5.0588,-5.0615,-5.0665,-5.0705,-5.0733,-5.0773,-5.0425,-5.0425,-5.0424,-5.0728,-5.0673,-5.0798,-5.0747,-5.0783,-5.0744,-5.0768,-5.0757,-5.069,-5.0747,-5.0765,-5.0981,-5.103,-5.1051,-5.1093,-5.0809,-5.081,-5.081,-5.0811,-5.0996,-5.1067,-5.0978,-5.1066,-5.1008,-5.1082,-5.1051,-5.1002,-5.1063,-5.0962,-5.1003,-5.0896,-5.1089,-5.1123,-5.082,-5.0818,-5.0817,-5.0816,-5.0816,-5.1203,-5.1227,-5.1222,-5.1268,-5.1312,-5.1256,-5.1319,-5.1264,-5.1213,-5.1254,-5.1266,-5.1264,-5.1254,-5.1264,-5.1265,-5.1266,-5.1266,-5.1267,-5.1267,-5.1418,-5.1407,-5.1467,-5.1476,-5.1493,-5.1508,-5.1473,-5.1488,-5.149,-5.1445,-5.1445,-5.1373,-5.1119,-5.1055,-5.1279,-5.1277,-5.1275,-5.1274,-5.1273,-5.1706,-5.1633,-5.1725,-5.1742,-5.1749,-5.1795,-5.1726,-5.1762,-5.1767,-5.18,-5.1721,-5.1542,-5.1502,-5.148,-5.1426,-5.1732,-5.1732,-5.1732,-5.1732,-5.1879,-5.1854,-5.1936,-5.1967,-5.1992,-5.1939,-5.2046,-5.2022,-5.1985,-5.1985,-5.1933,-5.1859,-5.1838,-5.1811,-5.178,-5.173,-5.2106,-5.2107,-5.2107,-5.2052,-5.2028,-5.2129,-5.2092,-5.2095,-5.2098,-5.2197,-5.2237,-5.218,-5.2121,-5.1983,-5.1967,-5.1846,-5.181,-5.1745,-5.1699,-5.1605,0,0]},{"header":{"parameterUnit":"m.s-1","parameterCategory":1,"la1":30.2992,"la2":30.254,"lo1":-89.0895,"lo2":-89.0443,"dy":0.0025,"dx":0.0025,"nx":19,"ny":19,"refTime":"2026-04-09T03:00:00:Z","depth":0,"parameterNumber":3,"parameterNumberName":"V-component_of_WINDS"},"data":[0,0,0,3.1204,3.1204,3.1227,3.1227,3.1232,3.1232,0,0,0,0,0,0,0,0,0,0,0,3.1185,3.1185,3.1204,3.1204,3.1227,3.1227,3.1232,3.1232,0,0,0,0,0,0,0,0,0,0,0,3.1185,3.1185,3.1184,3.1204,3.1227,3.1227,3.1232,3.1223,0,0,0,0,0,0,0,0,0,0,3.1205,3.1176,3.1185,3.1184,3.1204,3.1226,3.1227,3.1223,3.1223,3.1213,0,3.1202,0,3.1217,3.1231,3.1231,0,0,0,3.1212,3.1175,3.1193,3.1184,3.1204,3.1226,3.1219,3.1223,3.1224,3.1213,3.1202,3.1203,3.1217,3.1231,3.1231,3.1147,3.1147,0,0,3.1211,3.1182,3.1192,3.1193,3.1191,3.1218,3.1219,3.1224,3.1209,3.1202,3.1203,3.1217,3.1231,3.1231,3.1148,3.1147,0,0,0,3.1202,3.118,3.1198,3.1192,3.1198,3.1218,3.122,3.1209,3.1217,3.1204,3.1217,3.1231,3.1231,3.1149,3.1148,3.1082,0,0,0,3.1201,3.1175,3.1197,3.1179,3.1198,3.1204,3.1204,3.1217,3.1218,3.1217,3.1231,3.1231,3.115,3.1148,3.1085,3.1054,0,0,0,3.1187,3.1174,3.1173,3.1178,3.1187,3.1205,3.1214,3.1218,3.1226,3.1231,3.123,3.1151,3.1149,3.1089,3.1059,3.1023,0,0,0,3.1163,3.1112,3.1172,3.112,3.1187,3.1165,3.1214,3.1199,3.1195,3.1231,3.115,3.1148,3.109,3.1063,3.1026,3.0986,3.0967,0,0,3.1082,3.1101,3.1073,3.1127,3.1088,3.1164,3.1114,3.1137,3.1163,3.115,3.1149,3.1084,3.106,3.1024,3.0874,3.0859,0,0,0,3.1038,3.1017,3.1013,3.101,3.1029,3.1041,3.1076,3.1085,3.1077,3.1151,3.1063,3.1049,3.1029,3.1011,3.0998,3.0982,3.1139,3.1139,3.1139,3.0878,3.0918,3.0874,3.0916,3.0912,3.095,3.095,3.0968,3.1006,3.0985,3.098,3.0885,3.0863,3.0854,3.0837,3.0964,3.0964,3.0963,3.0963,3.0762,3.0738,3.0794,3.0772,3.0813,3.0794,3.0828,3.0857,3.0843,3.0891,3.0875,3.0922,3.0836,3.0823,3.0959,3.0959,3.096,3.096,3.0961,3.066,3.0656,3.067,3.0671,3.0667,3.0712,3.0697,3.0735,3.077,3.0755,3.0754,3.0755,3.076,3.0753,3.0752,3.0752,3.0752,3.0751,3.0751,3.0547,3.0566,3.0551,3.0569,3.0573,3.0583,3.0622,3.0626,3.064,3.0668,3.0669,3.0708,3.0821,3.0848,3.0746,3.0747,3.0748,3.0748,3.0749,3.0411,3.0449,3.0425,3.0429,3.0454,3.0448,3.0498,3.0504,3.0513,3.0504,3.0549,3.0627,3.0648,3.0658,3.068,3.0541,3.0541,3.0541,3.0541,3.0323,3.034,3.0325,3.0329,3.0338,3.0382,3.0352,3.0383,3.042,3.0427,3.0454,3.0487,3.0496,3.0512,3.0525,3.0546,3.0377,3.0376,3.0376,3.0241,3.0261,3.0228,3.0268,3.0291,3.031,3.0283,3.0284,3.0333,3.037,3.0434,3.0441,3.0495,3.0511,3.0546,3.0566,3.0606,0,0]}]]